Total_Precipitation_Accumulation
1.88 1.95 1.66 1.57 1.54 1.72 1.97 1.93 1.81 1.87 1.97 1.98 1.81 1.72 1.53 1.23 1.10 1.10 1.21 1.51 1.52 1.53 1.73 1.77 1.72 1.63 1.48 1.29 1.17 1.06 1.00 0.93 0.80 0.65 0.58 0.47 0.37 0.31 0.20 0.13 0.10 0.09 0.06
1.80 1.67 1.65 1.63 1.55 1.69 1.75 1.81 1.85 2.02 2.06 2.15 1.87 1.74 1.59 1.44 1.34 1.30 1.25 1.50 1.51 1.42 1.54 1.79 1.86 1.86 1.84 1.66 1.46 1.33 1.20 1.11 0.92 0.69 0.61 0.54 0.45 0.38 0.31 0.25 0.22 0.16 0.10
1.70 1.69 1.61 1.48 1.52 1.63 1.72 1.77 1.79 1.86 1.76 1.81 1.74 1.70 1.64 1.53 1.48 1.39 1.31 1.26 1.16 1.31 1.48 1.65 1.77 1.83 1.93 1.88 1.80 1.70 1.46 1.24 1.04 0.79 0.60 0.56 0.51 0.42 0.37 0.32 0.31 0.26 0.20
1.42 1.47 1.34 1.32 1.41 1.33 1.35 1.40 1.37 1.39 1.42 1.54 1.52 1.40 1.40 1.43 1.39 1.39 1.29 1.15 1.13 0.96 1.24 1.57 1.68 1.60 1.76 1.95 2.10 2.11 1.73 1.32 1.08 0.89 0.70 0.57 0.54 0.44 0.34 0.28 0.26 0.29 0.23
0.89 0.95 0.92 0.94 0.98 0.99 0.99 0.95 1.11 1.18 1.24 1.34 1.36 1.21 1.15 1.25 1.25 1.27 1.22 1.02 1.09 1.02 1.01 1.19 1.42 1.41 1.65 2.00 2.29 2.35 2.10 1.62 1.23 1.07 0.93 0.80 0.73 0.58 0.40 0.32 0.27 0.24 0.20
0.70 0.69 0.67 0.67 0.64 0.68 0.74 0.78 0.82 0.91 0.92 0.96 0.96 0.93 0.95 0.90 0.99 1.02 0.93 0.94 0.90 0.77 0.79 0.96 1.24 1.12 1.42 1.77 2.03 2.17 2.24 2.11 1.72 1.38 1.19 1.14 1.09 0.85 0.53 0.40 0.33 0.28 0.21
0.53 0.55 0.49 0.48 0.47 0.48 0.48 0.51 0.58 0.63 0.63 0.71 0.76 0.73 0.68 0.63 0.67 0.67 0.69 0.77 0.73 0.73 0.80 0.90 1.04 1.08 1.05 1.18 1.35 1.65 2.08 2.27 2.11 1.75 1.48 1.30 1.25 1.07 0.71 0.52 0.42 0.39 0.35
0.37 0.35 0.35 0.36 0.37 0.36 0.37 0.40 0.44 0.45 0.45 0.53 0.61 0.66 0.58 0.53 0.50 0.44 0.52 0.50 0.53 0.72 0.77 0.78 0.86 1.02 1.02 1.18 0.98 1.12 1.62 2.03 2.30 2.17 1.87 1.55 1.34 1.14 0.89 0.72 0.56 0.46 0.42
0.26 0.26 0.26 0.27 0.32 0.32 0.34 0.38 0.38 0.38 0.37 0.37 0.46 0.60 0.57 0.50 0.42 0.38 0.40 0.44 0.51 0.61 0.66 0.79 0.80 0.80 0.83 1.02 1.17 1.14 1.23 1.43 1.97 2.39 2.33 1.88 1.41 1.10 0.98 0.94 0.83 0.68 0.54
0.21 0.19 0.18 0.19 0.21 0.26 0.33 0.32 0.37 0.37 0.35 0.29 0.31 0.40 0.45 0.49 0.49 0.44 0.40 0.41 0.50 0.56 0.59 0.62 0.66 0.75 0.88 1.00 1.11 1.11 0.95 1.03 1.44 1.95 2.24 2.10 1.68 1.29 1.06 1.05 1.21 1.15 0.88
0.22 0.20 0.20 0.19 0.18 0.19 0.23 0.25 0.33 0.37 0.38 0.32 0.30 0.33 0.37 0.39 0.42 0.43 0.34 0.33 0.39 0.37 0.41 0.48 0.60 0.67 0.77 0.97 1.18 1.05 0.85 0.80 0.97 1.33 1.65 1.79 1.75 1.49 1.23 1.16 1.42 1.58 1.37
0.22 0.20 0.21 0.21 0.21 0.20 0.18 0.17 0.21 0.29 0.36 0.38 0.32 0.30 0.38 0.39 0.39 0.42 0.31 0.25 0.28 0.25 0.29 0.33 0.45 0.59 0.73 0.89 0.91 0.91 0.91 0.85 0.86 0.95 1.11 1.29 1.46 1.46 1.38 1.41 1.60 1.80 1.83
0.20 0.19 0.20 0.20 0.21 0.22 0.21 0.19 0.17 0.21 0.27 0.33 0.33 0.33 0.34 0.34 0.40 0.41 0.33 0.27 0.31 0.31 0.42 0.41 0.46 0.65 0.71 0.92 0.90 0.91 0.90 0.86 0.75 0.70 0.75 0.85 0.97 1.15 1.32 1.40 1.56 1.74 1.91
0.26 0.24 0.19 0.18 0.19 0.20 0.20 0.20 0.18 0.19 0.23 0.27 0.29 0.39 0.38 0.29 0.36 0.39 0.39 0.46 0.45 0.47 0.53 0.51 0.60 0.83 1.05 1.08 1.07 0.94 0.77 0.74 0.65 0.61 0.56 0.58 0.65 0.76 0.87 0.99 1.14 1.25 1.37
0.28 0.25 0.20 0.17 0.17 0.18 0.19 0.20 0.20 0.22 0.25 0.28 0.33 0.42 0.44 0.40 0.41 0.41 0.46 0.57 0.64 0.56 0.56 0.65 0.77 0.85 0.95 0.97 0.97 0.85 0.69 0.68 0.62 0.55 0.50 0.47 0.48 0.53 0.60 0.65 0.69 0.76 0.84
0.26 0.23 0.20 0.16 0.16 0.17 0.18 0.20 0.21 0.25 0.28 0.34 0.41 0.46 0.52 0.52 0.52 0.52 0.53 0.61 0.75 0.73 0.68 0.67 0.75 0.76 0.76 0.63 0.66 0.65 0.62 0.63 0.56 0.50 0.48 0.45 0.42 0.43 0.46 0.51 0.55 0.57 0.60
0.28 0.23 0.20 0.19 0.17 0.17 0.19 0.23 0.23 0.24 0.27 0.33 0.39 0.45 0.50 0.57 0.63 0.65 0.70 0.71 0.75 0.85 0.80 0.67 0.78 0.86 0.78 0.62 0.53 0.53 0.54 0.55 0.52 0.51 0.48 0.47 0.45 0.43 0.42 0.41 0.45 0.49 0.48
0.25 0.23 0.21 0.19 0.16 0.16 0.21 0.25 0.25 0.25 0.28 0.32 0.39 0.50 0.53 0.54 0.60 0.67 0.79 0.81 0.83 0.96 0.94 0.80 0.86 0.95 0.87 0.76 0.63 0.55 0.45 0.43 0.45 0.50 0.49 0.49 0.47 0.44 0.42 0.40 0.38 0.37 0.37
0.25 0.24 0.24 0.23 0.20 0.19 0.20 0.22 0.27 0.30 0.35 0.38 0.42 0.50 0.56 0.64 0.65 0.70 0.79 0.82 0.87 1.03 1.08 0.99 0.97 1.08 1.11 0.90 0.70 0.54 0.44 0.45 0.40 0.43 0.47 0.48 0.47 0.44 0.40 0.39 0.40 0.36 0.32
0.24 0.28 0.32 0.33 0.30 0.26 0.25 0.25 0.27 0.30 0.36 0.41 0.49 0.50 0.54 0.64 0.72 0.77 0.84 0.95 1.02 1.10 1.19 1.16 1.17 1.28 1.28 1.14 0.91 0.64 0.54 0.52 0.47 0.40 0.43 0.45 0.44 0.42 0.38 0.34 0.33 0.33 0.33
0.36 0.46 0.48 0.46 0.43 0.38 0.30 0.29 0.32 0.31 0.37 0.38 0.43 0.49 0.49 0.53 0.61 0.73 0.79 0.91 1.07 1.22 1.38 1.44 1.43 1.59 1.55 1.38 1.11 0.81 0.68 0.60 0.55 0.49 0.46 0.39 0.37 0.34 0.33 0.33 0.32 0.31 0.30
0.61 0.65 0.61 0.59 0.59 0.45 0.38 0.34 0.31 0.33 0.35 0.39 0.43 0.49 0.49 0.46 0.47 0.52 0.61 0.74 0.88 1.06 1.26 1.45 1.58 1.68 1.74 1.61 1.41 1.15 0.83 0.63 0.56 0.56 0.57 0.50 0.44 0.41 0.36 0.32 0.35 0.33 0.31
0.69 0.71 0.69 0.68 0.65 0.61 0.48 0.35 0.29 0.30 0.34 0.39 0.44 0.47 0.41 0.35 0.41 0.44 0.49 0.54 0.62 0.73 0.88 1.10 1.29 1.40 1.58 1.71 1.59 1.28 1.01 0.80 0.64 0.61 0.62 0.53 0.50 0.48 0.42 0.38 0.43 0.36 0.31
0.81 0.79 0.75 0.75 0.75 0.71 0.59 0.45 0.39 0.34 0.36 0.38 0.42 0.44 0.43 0.39 0.41 0.47 0.52 0.51 0.50 0.52 0.60 0.70 0.84 1.07 1.28 1.50 1.56 1.45 1.34 1.09 0.83 0.67 0.64 0.56 0.47 0.44 0.44 0.42 0.43 0.40 0.36
0.87 0.87 0.88 0.88 0.87 0.83 0.69 0.50 0.42 0.40 0.44 0.44 0.46 0.48 0.52 0.46 0.42 0.38 0.44 0.45 0.45 0.44 0.43 0.51 0.62 0.82 1.06 1.23 1.42 1.42 1.31 1.18 0.94 0.70 0.59 0.54 0.44 0.42 0.41 0.36 0.37 0.39 0.37
0.79 0.81 0.83 0.89 0.92 0.90 0.79 0.56 0.48 0.45 0.49 0.52 0.57 0.57 0.53 0.44 0.40 0.32 0.37 0.42 0.40 0.39 0.44 0.45 0.50 0.59 0.71 0.96 1.17 1.21 1.13 1.06 0.93 0.72 0.54 0.49 0.42 0.41 0.42 0.32 0.27 0.28 0.30